Weather Roundup
Issued by NWS Chicago, IL

Home | Current Version | Previous Version | Graphics & Text | Print | Product List | Glossary On
Versions: 1 2 3 4 5 6 7 8 9 10 11 12 13 14 15 16 17 18 19 20 21 22 23 24 25 26 27 28 29 30 31 32 33 34 35 36 37 38 39 40 41 42 43 44 45 46 47 48 49 50
000
NZUS59 KLOT 262308
HRRLOT

CHICAGO AREA WEATHER ROUNDUP
NATIONAL WEATHER SERVICE CHICAGO/ROMEOVILLE IL
600 PM CDT THU MAR 26 2015

NOTE: "FAIR" INDICATES FEW OR NO CLOUDS BELOW 12,000 FEET WITH NO
SIGNIFICANT WEATHER AND/OR OBSTRUCTIONS TO VISIBILITY.

* THESE STATIONS ARE NOT UNDER NWS QUALITY CONTROL. THEY ALSO MAY NOT
  REPORT WEATHER SUCH AS PRECIPITATION OR FOG.

ILZ005-006-012>014-019>023-270000-
NORTHEAST ILLINOIS

CITY           SKY/WX    TMP DP  RH WIND       PRES   REMARKS
OHARE          CLOUDY    38  23  55 NW14      30.00R
MIDWAY         PTSUNNY   41  21  44 NW14      30.00R
AURORA         CLOUDY    39  24  55 NW10      30.01S
LANSING*       CLOUDY    38  23  53 NE10      29.99S
JOLIET*        PTSUNNY   40  24  51 NW7       30.01S
WAUKEGAN       CLOUDY    35  22  58 NW9       30.00R WCI  28
DUPAGE AIRPORT CLOUDY    38  22  52 NW12      30.00S
WHEELING       CLOUDY    37  22  54 NW14      30.02R
KANKAKEE*      MOSUNNY   41  27  56 NW17G23   30.00S
MORRIS*        MOSUNNY   41  25  52 N8        30.00F
LEWIS AIRPORT* CLOUDY    39  22  50 N12       30.01S
NORTHERLY IS     N/A     37  27  67 E2          N/A
$$

WIZ051-052-058>065-066-070>072-270000-
SOUTHEAST WISCONSIN

CITY           SKY/WX    TMP DP  RH WIND       PRES   REMARKS
MILWAUKEE      CLOUDY    35  17  47 NW12      30.01R WCI  27
KENOSHA*       CLOUDY    36  23  59 NW7       30.00R
RACINE*        CLOUDY    35  20  54 N8        30.02R WCI  29
BURLINGTON     CLOUDY    33  20  59 NW12      30.00S WCI  25
WAUKESHA       CLOUDY    32  19  59 NW14G20   30.01R WCI  22
WEST BEND      CLOUDY    32  19  59 NW12      30.01R WCI  23
$$

INZ001>003-010>013-019-020-270000-
NORTHWEST INDIANA

CITY           SKY/WX    TMP DP  RH WIND       PRES   REMARKS
GARY*          PTSUNNY   39  19  45 NE9       30.01R
MICHIGAN CITY* NOT AVBL
RENSSELAER*    NOT AVBL
VALPARAISO     CLOUDY    37  22  54 N10       29.99R
$$

LMZ740>746-270000-
SOUTHERN LAKE MICHIGAN

STATION/POSITION TIME  SKY/WX   TEMP WIND        PRES    VSBY
                                AIR  DIR/SP/G
                 (UTC)          (F)  (DEG/KT/KT) (MB)    (MI)
HARRISON CRIB    2200            35   50/  6/  6   N/A
BURNHAM HARBOR   2300            37   60/  3/  7   N/A
CALUMET HARBOR   2200            37   40/  8/  9 1014.6R
BURNS HARBOR     2200            35   30/  6/  8 1016.3R
MICHIGAN CITY    2200            36  320/  6/  6   N/A
$$

ABBREVIATIONS USED IN REMARKS
   TC - TEMPERATURE IN CELSIUS
  WCI - WIND CHILL INDEX
   HX - HEAT INDEX
  VSB - VISIBILITY
$$



USA.gov is the U.S. government's official web portal to all federal, state and local government web resources and services.